Weather History for Winston-Salem, NC

Change the Weather History Date:

Wednesday, March 12, 2014

  Actual Average Record
Temperature  
Mean Temperature 54 °F -  
Max Temperature 68 °F 55 °F 81 °F (1990)
Min Temperature 39 °F 38 °F 14 °F (1969)
Degree Days  
Heating Degree Days 10    
Growing Degree Days 4 (Base 50)    
Moisture  
Dew Point 49 °F    
Average Humidity 69    
Maximum Humidity 93    
Minimum Humidity 35    
Precipitation  
Precipitation 0.54 in - - ()
Sea Level Pressure  
Sea Level Pressure 29.41 in    
Wind  
Wind Speed 9 mph (SW)    
Max Wind Speed 28 mph    
Max Gust Speed 48 mph    
Visibility 8 miles    
Events Fog , Rain , Thunderstorm    
Averages and records for this station are not official NWS values.
T = Trace of Precipitation, MM = Missing Value Source: NWS Daily Summary

Daily Weather History Graph

Daily Weather History Graph

Search for Another Location

Airport:

Trip Planner

Search our weather history database for the weather conditions in past years. The results will help you decide how hot, cold, wet, or windy it might be!

Date:

Astronomy

Mar. 12, 2014 Rise Set
Actual Time 7:36 AM EDT 7:25 PM EDT
Civil Twilight 7:10 AM EDT 7:51 PM EDT
Nautical Twilight 6:40 AM EDT 8:21 PM EDT
Astronomical Twilight 6:10 AM EDT 8:51 PM EDT
Moon 3:59 PM EDT (3/12) 5:01 AM EDT (3/12)
Length of Visible Light 12h 40m
Length of Day
11h 49m
Waxing Gibbous, 85% of the Moon is Illuminated
Mar 12
Waxing Gibbous
Mar 16
Full
Mar 23
Last Quarter
Mar 30
New
Apr 7
First Quarter

Hourly Weather History & Observations

Time (EDT) Temp. Windchill Dew Point Humidity Pressure Visibility Wind Dir Wind Speed Gust Speed Precip Events Conditions
12:54 AM 62.1 °F - 34.0 °F 35% 29.65 in 10.0 mi SSW 3.5 mph - N/A   Clear
1:54 AM 55.9 °F - 36.0 °F 47% 29.64 in 10.0 mi SSW 3.5 mph - N/A   Clear
2:54 AM 61.0 °F - 37.9 °F 42% 29.61 in 10.0 mi SSW 4.6 mph - N/A   Clear
3:54 AM 61.0 °F - 39.9 °F 46% 29.58 in 10.0 mi SW 4.6 mph - N/A   Mostly Cloudy
4:54 AM 62.1 °F - 43.0 °F 50% 29.56 in 10.0 mi SW 8.1 mph - N/A   Scattered Clouds
5:54 AM 62.1 °F - 46.0 °F 56% 29.56 in 10.0 mi SW 6.9 mph - N/A   Mostly Cloudy
6:54 AM 64.0 °F - 48.9 °F 58% 29.54 in 10.0 mi SSW 11.5 mph 16.1 mph N/A   Overcast
7:54 AM 63.0 °F - 51.1 °F 65% 29.53 in 9.0 mi SW 8.1 mph 16.1 mph N/A   Overcast
8:54 AM 60.1 °F - 55.0 °F 83% 29.52 in 7.0 mi SSW 6.9 mph - 0.00 in Rain Light Rain
9:28 AM 59.0 °F - 55.9 °F 90% 29.53 in 5.0 mi South 9.2 mph - 0.02 in Rain Light Rain
9:44 AM 59.0 °F - 55.9 °F 90% 29.53 in 4.0 mi South 8.1 mph - 0.03 in Rain Light Rain
9:54 AM 59.0 °F - 55.9 °F 90% 29.50 in 4.0 mi SSW 6.9 mph - 0.04 in Rain Light Rain
10:06 AM 59.0 °F - 55.9 °F 90% 29.51 in 5.0 mi SW 9.2 mph 17.3 mph 0.01 in Rain Light Rain
10:54 AM 59.0 °F - 57.0 °F 93% 29.46 in 6.0 mi SSW 8.1 mph - 0.03 in Rain Light Rain
11:54 AM 60.1 °F - 57.0 °F 90% 29.42 in 10.0 mi SSW 11.5 mph 20.7 mph 0.01 in   Overcast
12:54 PM 60.1 °F - 57.0 °F 90% 29.39 in 5.0 mi SSW 12.7 mph 21.9 mph N/A   Overcast
1:54 PM 61.0 °F - 55.9 °F 83% 29.36 in 10.0 mi SW 11.5 mph 18.4 mph N/A   Overcast
2:12 PM 61.0 °F - 57.0 °F 87% 29.36 in 10.0 mi SSW 8.1 mph 19.6 mph N/A   Overcast
2:22 PM 61.0 °F - 57.0 °F 87% 29.35 in 10.0 mi SSW 9.2 mph 21.9 mph 0.00 in Rain Light Rain
2:54 PM 62.1 °F - 57.0 °F 84% 29.30 in 10.0 mi SSW 9.2 mph 21.9 mph 0.00 in   Overcast
3:01 PM 63.0 °F - 57.0 °F 81% 29.31 in 10.0 mi SSW 9.2 mph 19.6 mph N/A   Overcast
3:09 PM 64.0 °F - 57.0 °F 78% 29.30 in 10.0 mi SSW 11.5 mph 18.4 mph N/A   Overcast
3:54 PM 66.9 °F - 57.0 °F 70% 29.25 in 10.0 mi SSW 10.4 mph 20.7 mph N/A   Overcast
4:01 PM 66.9 °F - 57.0 °F 70% 29.27 in 10.0 mi SW 10.4 mph 25.3 mph N/A   Mostly Cloudy
4:21 PM 68.0 °F - 55.9 °F 65% 29.26 in 10.0 mi SSW 13.8 mph 21.9 mph N/A   Scattered Clouds
4:29 PM 68.0 °F - 55.9 °F 65% 29.25 in 10.0 mi SSW 12.7 mph 21.9 mph N/A   Mostly Cloudy
4:41 PM 68.0 °F - 55.9 °F 65% 29.24 in 10.0 mi SSW 9.2 mph 23.0 mph N/A   Mostly Cloudy
4:54 PM 68.0 °F - 55.0 °F 63% 29.21 in 10.0 mi SSW 9.2 mph 27.6 mph 0.00 in Rain Light Rain
5:03 PM 66.0 °F - 57.0 °F 73% 29.29 in 2.0 mi West 26.5 mph 44.9 mph 0.08 in Rain , Thunderstorm Thunderstorms and Rain
5:05 PM 63.0 °F - 55.9 °F 78% 29.30 in 0.5 mi West 26.5 mph 44.9 mph 0.23 in Rain , Thunderstorm Heavy Thunderstorms and Rain
5:08 PM 59.0 °F - 55.0 °F 87% 29.29 in 0.2 mi WSW 21.9 mph 44.9 mph 0.39 in Fog , Rain , Thunderstorm Heavy Thunderstorms and Rain
5:18 PM 57.9 °F - 52.0 °F 81% 29.27 in 1.2 mi West 8.1 mph - 0.46 in Rain , Thunderstorm Thunderstorms and Rain
5:21 PM 57.9 °F - 53.1 °F 84% 29.27 in 4.0 mi West 8.1 mph 17.3 mph 0.46 in Rain , Thunderstorm Thunderstorms and Rain
5:32 PM 59.0 °F - 53.1 °F 81% 29.27 in 10.0 mi West 8.1 mph - 0.46 in Thunderstorm Overcast
5:39 PM 61.0 °F - 53.1 °F 75% 29.28 in 10.0 mi West 12.7 mph 19.6 mph 0.46 in   Overcast
5:46 PM 62.1 °F - 53.1 °F 72% 29.29 in 10.0 mi West 13.8 mph 21.9 mph 0.46 in Thunderstorm Overcast
5:54 PM 63.0 °F - 51.1 °F 65% 29.28 in 10.0 mi West 17.3 mph 29.9 mph 0.46 in Thunderstorm Overcast
6:01 PM 64.0 °F - 44.1 °F 48% 29.28 in 10.0 mi West 24.2 mph 48.3 mph N/A   Mostly Cloudy
6:54 PM 57.0 °F - 37.9 °F 49% 29.35 in 10.0 mi NW 23.0 mph 38.0 mph N/A   Clear
7:54 PM 48.0 °F - 28.9 °F 48% 29.46 in 10.0 mi NW 27.6 mph 46.0 mph N/A   Clear
8:54 PM 45.0 °F 37.4 °F 27.0 °F 49% 29.55 in 10.0 mi WNW 18.4 mph 32.2 mph N/A   Clear
9:54 PM 43.0 °F 35.7 °F 25.0 °F 49% 29.60 in 10.0 mi WNW 15.0 mph 24.2 mph N/A   Scattered Clouds
10:54 PM 41.0 °F 33.5 °F 23.0 °F 49% 29.65 in 10.0 mi WNW 13.8 mph 21.9 mph N/A   Scattered Clouds
11:54 PM 39.9 °F 32.5 °F 23.0 °F 51% 29.68 in 10.0 mi NW 12.7 mph 19.6 mph N/A   Scattered Clouds